CZ-3C DEB, 40854

Orbit data source: Space-Track

CZ-3C DEB, 40854 is space debris originally from a launch on Fri, 24 Feb 2012 UTC launched from the Xichang Space Center, China (XSC). Debris objects in space refer to the collection of defunct objects orbiting the Earth. Examples of debris include non-operational satellites, rocket bodies, and fragments generated from explosions, collisions, or faulty payload assembly.

Loading next visibility...
CZ-3C DEB details
Identifier
40854, 2012-008U
Orbit
Molniya
Last TLE update8 months ago
Origin
Flag of CNCASC (CN / PRC)
ManufacturerCALT
MissionSpacecraft
Bus & MotorUnknown
MassUnknown
Launch date (UTC)
2012-02-24 (13 years ago)
Launch vehicleUnknown
Launch site
Xichang Space Center, China (XSC)
Object type
Payload
Rocket body
Debris
Shape & HBRUnknown
Radar Cross SectionMedium (>0.1 m² and <1 m²)

Expand to show TLE details & history

TLE from 8 months ago
0 CZ-3C DEB
1 40854U 12008U   24098.67979781  .00003189  00000-0  25835-1 0  9994
2 40854  20.2524 198.8117 7097395 235.2609  36.9956  2.36270535 81583
Epoch: 2024-04-07T16:18Z
Definitive object data (Epoch: 2024-04-07T16:18:54.53Z)
Latitude0.00004°
Longitude117.7388°
Altitude13,538.732 km
Speed4.825 km/s
True Right ascension13h 15m 35s
True Declination0° 00' 00"
Sunlit
Object was in full shadow at TLE epoch
Visualization TLE readout
Latitude-15.69692°
Longitude-104.74382°
Altitude32,525.86 km
Speed1.918 km/s
Apparent Right ascension22h 02m 13s
Apparent Declination-19° 53' 08"
Sunlit
Object is in daylight
Visualization observer readout
Local Sidereal Time06:37:05
Azimuth279.023° WNW
Elevation-42.018°
Doppler factor1
Orbital elements
Apogee altitude34,341.587 km
Perigee altitude534.804 km
Semi-major axis23,816.332 km
Eccentricity0.7097395
Inclination20.2524°
RAAN198.8117°
Arg. of periapsis235.2609°
True anomaly124.84919°
Mean anomaly36.9956°
Eccentric anomaly76.54445°
Mean motion0.59051 °/min
BSTAR0.025835
Orbital period609.64 mins
Loading maneuver chart data...
Loading historical data...
Loading historical data...
Loading historical data...
Loading historical data...
Loading historical data...
Loading historical data...
Loading historical data...

CZ-3C DEB Visibility forecast

Observer location: undefined°, undefined

Span
Click to sort rows by Start time (UTC) header in descending order
Start Az.
Max El. time (UTC)
Max El. Az.
Max El.
End time (UTC)
End Az.
198 mins2024-12-04 23:28:55.369Z249.692° W2024-12-05 00:28:55.369Z233.777° WSW18.142°2024-12-05 02:46:55.369Z235.732° WSW
|